AQI (27)

Current Conditions for Foresthill, CA. Clear skies, Dry   
Visibility: 10 miles
Space WX Alerts: CONTINUED ALERT:  Electron 2MeV Integral Flux exceeded 1000pfu ( Latest Alert ) - Issue Time: 2018 Apr 22 0900 UTC

  Summary / Temperature 

Current Temperature
53.7°F
12.1°C
(24/hr Ago)
50.1°F
(Apparent temp)
49.4°F
Cool
Wind Chill Graphs
53.7°F 

53.7°F/ 12.1°C
 --- Virtual Temp: 55.6°F ---

 Temp Rate:

 24/hr Difference:

 Avg Running Temp:

 Todays High:

 Todays Low:

 Y-days High:

 Y-days Low:

 Todays WChill:

 Y-days WChill:

 Evapotranspiration:

-0.7°F/hr 

+3.6°F

54.3°F

56.1°F 12:00am

53.7°F 5:43am

71.4°F 2:04pm

49.4°F 6:58am

50.5°F 4:46am

46.7°F 6:31am

0.005 in

115' Above Ground

 Temperature:

 6'AGL VRS 115'AGL:

 Avg Running Temp:

 Humidity:

 Todays High:

 Todays Low:

 Y-days High:

 Y-days Low:

57.0°F 

+3.3°F

57.0°F

52% 

60.0°F 12:00am

56.0°F 5:08am

70.0°F 1:34pm

52.0°F 6:37am

Temp & Humidity Graphs

  Wind 

Wind Speed

 1.0 mph

Gusting to

 9.0 mph

Wind from E

97°  E

Light air

 Avg speed:

 Wind Run:

 Peak Gust:

  4.0 mph 

27.0 miles

  14.0 mph 1:49am

  Almanac  

Moon age: 6 days,23 hours,22 minutes,46%

Waxing Crescent
46%
Illuminated
6 days in cycle

 Moonrise:

 Moonset:

 Sunrise:

 Sunset:

 Solar Noon:

12:08pm

1:55am

6:14am

7:45pm

1:02pm

2min 21s more daylight tomorrow 

  Solar Radiation 

(Current Solar)
  No Sun Light
(Todays High)
 None@12:00am

Rain

 Rain Today:

 Rain Rate (/hr):

 Rain last hour:

 Rain Yesterday:

 This Month:

 Season Total:

4 Days Since Last Rain Day

0.00 in

0.000 in

0.00 in

0.00 in

4.71 in

41.88 in

Updated Time

Updated: 4/22/18  5:46am

(Updated  sec ago)

Humidity & Barometer

 Humidity:

 Wetbulb:

 Dew Point:

 Barometer:

62% 

47.7°F 

41.0°F 

30.021 inHg 

 Baro Trend:  Steady 
Northern Calif
Preparedness
Fire 
Level 

    UV Index  

(Current UV)
0.0  None
(Todays High) @ 12:00am
0.0   None

National Weather Service Forecast

Overnight

Overnight: Clear
Clear
Sunday

Sunday: Sunny
Sunny
Sunday
Night
Sunday Night: Clear
Clear
Monday

Monday: Sunny
Sunny
Monday
Night
Monday Night: Mostly Clear
Mostly Clear
Tuesday

Tuesday: Sunny
Sunny
Lo 51 °F Hi 75 °F Lo 51 °F Hi 77 °F Lo 54 °F Hi 77 °F

Foresthill Probe 2 Stats  
Foresthill Probe 2: is located on Thomas Street
at 3000 feet. The main Foresthill Weather site
is located on Melody ln at the 2860 foot elevation

Calm
52.0°F
11.1°C
Temp Rate:
-0.5°F
Calm
Gusting to
2.0 mph
(Humidity)
67%
Wind from ESE
117°  ESE
Updated: 22/04/18 - 05:42:17
 Todays High: 54.6°F 00:00
 Todays Low: 52.0°F 05:38
 Rain Today: 0.00 in
 Season Total: 44.24 in

Foresthill Wx: Monthly,Yearly, Highs and Lows 

Foresthill  
This Weather Data is coming from the main Foresthill
Weather site located on Melody ln at the 2860 foot
elevation
Not Foresthill Probe 2
Weather Data
Month
  High
Month
  Low
Year
High
Year
Low
Temp 71.4°F
4/21/18
31.8°F
4/17/18
73.4°F
3/31/18
21.9°F
2/23/18
Humidity 100%
4/12/18
16%
4/4/18
100%
1/8/18
15%
2/10/18
Heat Index 71.7°F
4/21/18
38.1°F
4/13/18
72.6°F
3/31/18
27.1°F
2/20/18
Wind Chill 71.4°F
4/21/18
25.0°F
4/17/18
73.4°F
3/31/18
9.2°F
2/23/18
Wind Gust 28 mph
4/6/18
0 mph
4/1/18
43 mph
3/1/18
0 mph
1/1/18
Barometer 30.46 in
4/13/18
29.82 in
4/15/18
30.55 in
1/27/18
29.63 in
1/9/18
ET 0.18 in
4/21/18
0.00 in
4/1/18
0.18 in
4/21/18
0.00 in
1/1/18
Dew Point 55.4°F
4/9/18
18.7°F
4/4/18
55.4°F
4/9/18
7.6°F
2/11/18
Pacific Satellite US Radar Satellite Imagery Sacramento,CA.  (click to enlarge)
NWS Weather Forecast - Summary
Updated: Sunday, April 22, 2018 - 3:00am PDT
Current Interstate Highway Conditions for I-80 & US-50

[I 80: IN THE SAN FRANCISCO BAY AREA - SOLANO CO]
no traffic restrictions are reported for this area.

[I 80: IN THE NORTHERN CALIFORNIA AREA & SIERRA NEVADA]
no traffic restrictions are reported for this area.

[US 50: IN THE SACRAMENTO VALLEY & THE LAKE TAHOE BASIN]
no traffic restrictions are reported for this area.
NWS Weather Forecast: Overnight and Sunday (Updated: Sun, 22-Apr-2018 4:26am PDT)
Overnight

Overnight: Clear
Clear

Lo 51 °F
NWS forecast: Clear, with a low around 51. East wind around 8 mph.
Sunday

Sunday: Sunny
Sunny

Hi 75 °F
NWS forecast: Sunny. High near 75, with temperatures falling to around 71 in the afternoon. West southwest wind 5 to 8 mph.
YR.NO 10 Day Weather forecast
Last update: 04/22/2018 @ 00:44
Next update: 04/22/2018 @ 13:00
Provided by: 22
      Temperature Precipitation Pressure Wind  
Today
04/22/2018
04:00 06:00 43°F   30.00 inHg Light breeze from east-northeast 6 mph
  06:00 12:00 39°F   29.99 inHg Light breeze from east-northeast 6 mph
  12:00 18:00 70°F   29.96 inHg Light breeze from west 6 mph
  18:00 00:00 68°F   29.90 inHg Light breeze from west 4 mph
    (Click to enlarge)
meteogram

    Forecast for next 9 days

      Temperature Precip Pressure Wind  
Monday
04/23/2018
00:00 06:00 45°F   29.95 inHg Light breeze from east-northeast 6 mph
  06:00 12:00 43°F   29.94 inHg Gentle breeze from east-northeast 9 mph
  12:00 18:00 73°F   29.96 inHg Light breeze from southwest 6 mph
  18:00 00:00 70°F   29.92 inHg Light air from west-southwest 2 mph
      Temperature Precip Pressure Wind  
Tuesday
04/24/2018
00:00 06:00 48°F   29.96 inHg Gentle breeze from east-northeast 8 mph
  06:00 12:00 48°F   29.94 inHg Gentle breeze from east-northeast 8 mph
  12:00 18:00 75°F   29.96 inHg Light breeze from west-southwest 7 mph
  17:00 23:00 73°F   29.93 inHg Light breeze from west-southwest 5 mph
  23:00 05:00 54°F   30.00 inHg Light air from east-northeast 2 mph
      Temperature Precip Pressure Wind  
Wednesday
04/25/2018
05:00 11:00 46°F   29.96 inHg Light breeze from east-northeast 6 mph
  11:00 17:00 73°F   30.00 inHg Light air from southwest 3 mph
  17:00 23:00 72°F   29.96 inHg Light breeze from west-southwest 5 mph
  23:00 05:00 48°F   30.00 inHg Light air from east-northeast 3 mph
      Temperature Precip Pressure Wind  
Thursday
04/26/2018
05:00 11:00 43°F   29.95 inHg Light breeze from east-northeast 6 mph
  11:00 17:00 72°F   29.94 inHg Light breeze from west-southwest 4 mph
  17:00 23:00 72°F   29.90 inHg Light breeze from southwest 4 mph
  23:00 05:00 54°F   29.92 inHg Light air from east 3 mph
      Temperature Precip Pressure Wind  
Friday
04/27/2018
05:00 11:00 45°F   29.94 inHg Light air from east 3 mph
  11:00 17:00 59°F   30.01 inHg Light breeze from south-southwest 6 mph
  17:00 23:00 61°F   29.97 inHg Light breeze from southwest 6 mph
  23:00 05:00 45°F   30.05 inHg Light breeze from south-southeast 4 mph
      Temperature Precip Pressure Wind  
Saturday
04/28/2018
05:00 11:00 37°F   30.03 inHg Light air from east 2 mph
  11:00 17:00 57°F   30.01 inHg Light breeze from southwest 5 mph
  17:00 23:00 57°F   29.97 inHg Light breeze from southwest 7 mph
  23:00 05:00 43°F   30.08 inHg Light breeze from south-southeast 6 mph
      Temperature Precip Pressure Wind  
Sunday
04/29/2018
05:00 11:00 37°F   30.07 inHg Light breeze from east 4 mph
  11:00 17:00 57°F   30.08 inHg Light breeze from west-southwest 5 mph
  17:00 23:00 59°F   30.05 inHg Light breeze from west-northwest 5 mph
  23:00 05:00 41°F   30.09 inHg Light breeze from east-northeast 6 mph
      Temperature Precip Pressure Wind  
Monday
04/30/2018
05:00 11:00 37°F   30.05 inHg Gentle breeze from east-northeast 8 mph
  11:00 17:00 66°F   30.04 inHg Light breeze from west 6 mph
  17:00 23:00 68°F   29.98 inHg Light breeze from west-northwest 5 mph
  23:00 05:00 45°F   29.97 inHg Light breeze from east-northeast 6 mph
      Temperature Precip Pressure Wind  
Tuesday
05/01/2018
05:00 11:00 48°F   29.89 inHg Gentle breeze from east-northeast 8 mph
  11:00 17:00 70°F   29.93 inHg Light breeze from south-southwest 6 mph

NOAA Local Storm Report
5 MILES SOUTH-SOUTHWEST OF RUBY   ( More )
DATE
04/16/2018
TIME
8:59 AM
COUNTY
PEND OREILLE
STATE
WA
GEOGRAPHIC
48.45N 117.33W
SOURCE
LAW ENFORCEMENT
DEBRIS FLOW
water over roadway has closed sr20 at mp 411.
How Close Are We To this Month's Temperature Record ?
Updated Sunday, Apr 22, 2018- 5:40:00 AM

Current Temperature: 53.7°F

April's High: Temperature Record 83.2°F - Set on Sun, Apr 22, 2012 - 2:12:00 PM
We are currently 29.5°F Less than this Month's record High

April's Low: Temperature Record 31.4°F - Set on Thu, Apr 5, 2012 - 6:23:00 AM
We are currently 22.3°F More than this Month's record Low

Weather History For Sunday, April 22, 2018


On this Day - In Weather History ...
Data courtesy of weatherforyou.com
powered by Cumulus v1.9.3 (1059)
Ambient Weather VWS v14.00
Top Contact Website Map Copyright © 2007 - 2018 Foresthillweather.com Never base important decisions on this or any weather information obtained from the Internet